Weather History for Gadsden, AL

Change the Weather History Date:

Saturday, March 17, 2012

  Actual Average Record
Temperature  
Mean Temperature 68 °F -  
Max Temperature 80 °F 61 °F 86 °F (1945)
Min Temperature 55 °F 38 °F 25 °F (1949)
Cooling Degree Days 2    
Growing Degree Days 18 (Base 50)    
Moisture  
Dew Point 58 °F    
Average Humidity 73    
Maximum Humidity 100    
Minimum Humidity 39    
Precipitation  
Precipitation 0.04 in - - ()
Sea Level Pressure  
Sea Level Pressure 30.19 in    
Wind  
Wind Speed 1 mph (SSE)    
Max Wind Speed 9 mph    
Max Gust Speed -    
Visibility 8 miles    
Events      
Averages and records for this station are not official NWS values.
T = Trace of Precipitation, MM = Missing Value Source: NWS Daily Summary

Daily Weather History Graph

Daily Weather History Graph

Search for Another Location

Airport:

Trip Planner

Search our weather history database for the weather conditions in past years. The results will help you decide how hot, cold, wet, or windy it might be!

Date:

Astronomy

Mar. 17, 2012 Rise Set
Actual Time 6:51 AM CDT 6:54 PM CDT
Civil Twilight 6:26 AM CDT 7:19 PM CDT
Nautical Twilight 5:57 AM CDT 7:48 PM CDT
Astronomical Twilight 5:28 AM CDT 8:17 PM CDT
Moon 3:40 AM CDT (3/17) 2:28 PM CDT (3/17)
Length of Visible Light 12h 52m
Length of Day
12h 02m
Waning Crescent, 23% of the Moon is Illuminated
Mar 17
Waning Crescent
Mar 22
New
Mar 30
First Quarter
Apr 6
Full
Apr 13
Last Quarter

Hourly Weather History & Observations

Time (CDT) Temp. Heat Index Dew Point Humidity Pressure Visibility Wind Dir Wind Speed Gust Speed Precip Events Conditions
12:15 AM 60.8 °F - 60.8 °F 100% 30.18 in 7.0 mi Calm Calm - N/A   Mostly Cloudy
12:35 AM 60.8 °F - 60.8 °F 100% 30.18 in 9.0 mi Calm Calm - N/A   Mostly Cloudy
12:55 AM 60.8 °F - 59.0 °F 94% 30.18 in 5.0 mi Calm Calm - N/A   Mostly Cloudy
1:15 AM 60.8 °F - 59.0 °F 94% 30.18 in 6.0 mi NNE 4.6 mph - N/A   Clear
1:35 AM 60.8 °F - 60.8 °F 100% 30.18 in 9.0 mi Calm Calm - N/A   Mostly Cloudy
1:55 AM 60.8 °F - 60.8 °F 100% 30.17 in 10.0 mi Calm Calm - N/A   Mostly Cloudy
2:15 AM 60.8 °F - 59.0 °F 94% 30.17 in 5.0 mi Calm Calm - N/A   Scattered Clouds
2:35 AM 60.8 °F - 59.0 °F 94% 30.17 in 5.0 mi Calm Calm - N/A   Mostly Cloudy
2:55 AM 60.8 °F - 59.0 °F 94% 30.17 in 5.0 mi Calm Calm - N/A   Mostly Cloudy
3:15 AM 59.0 °F - 57.2 °F 94% 30.17 in 2.0 mi Calm Calm - N/A   Scattered Clouds
3:35 AM 59.0 °F - 57.2 °F 94% 30.17 in 0.8 mi Calm Calm - N/A   Unknown
3:55 AM 57.2 °F - 55.4 °F 94% 30.18 in 0.8 mi Calm Calm - N/A   Overcast
4:15 AM 57.2 °F - 55.4 °F 94% 30.18 in 0.5 mi Calm Calm - N/A   Overcast
4:35 AM 57.2 °F - 55.4 °F 94% 30.18 in 3.0 mi Calm Calm - N/A   Overcast
4:55 AM 57.2 °F - 55.4 °F 94% 30.18 in 4.0 mi WNW 4.6 mph - N/A   Overcast
5:15 AM 57.2 °F - 55.4 °F 94% 30.19 in 5.0 mi Calm Calm - N/A   Overcast
5:35 AM 57.2 °F - 57.2 °F 100% 30.19 in 6.0 mi Calm Calm - N/A   Overcast
5:55 AM 57.2 °F - 57.2 °F 100% 30.20 in 6.0 mi West 3.5 mph - N/A   Overcast
6:15 AM 57.2 °F - 55.4 °F 94% 30.20 in 5.0 mi Calm Calm - N/A   Overcast
6:35 AM 57.2 °F - 55.4 °F 94% 30.21 in 3.0 mi Calm Calm - N/A   Overcast
6:55 AM 57.2 °F - 55.4 °F 94% 30.21 in 0.8 mi Calm Calm - N/A   Mostly Cloudy
7:15 AM 55.4 °F - 55.4 °F 100% 30.22 in 0.2 mi Calm Calm - N/A   Mostly Cloudy
7:35 AM 57.2 °F - 57.2 °F 100% 30.23 in 4.0 mi Calm Calm - N/A   Mostly Cloudy
7:55 AM 59.0 °F - 57.2 °F 94% 30.24 in 5.0 mi Calm Calm - N/A   Partly Cloudy
8:15 AM 60.8 °F - 59.0 °F 94% 30.24 in 5.0 mi Calm Calm - N/A   Clear
8:35 AM 62.6 °F - 60.8 °F 94% 30.24 in 10.0 mi Calm Calm - N/A   Clear
9:15 AM 66.2 °F - 60.8 °F 83% 30.25 in 10.0 mi Calm Calm - N/A   Clear
9:35 AM 68.0 °F - 59.0 °F 73% 30.26 in 10.0 mi Calm Calm - N/A   Clear
9:55 AM 69.8 °F - 60.8 °F 73% 30.26 in 10.0 mi Calm Calm - N/A   Clear
10:15 AM 71.6 °F - 60.8 °F 69% 30.26 in 10.0 mi Calm Calm - N/A   Clear
10:35 AM 71.6 °F - 60.8 °F 69% 30.26 in 10.0 mi Calm Calm - N/A   Clear
10:55 AM 73.4 °F - 60.8 °F 65% 30.25 in 10.0 mi East 3.5 mph - N/A   Clear
11:15 AM 73.4 °F - 60.8 °F 65% 30.25 in 10.0 mi Calm Calm - N/A   Clear
11:35 AM 75.2 °F - 59.0 °F 57% 30.24 in 10.0 mi ESE 3.5 mph - N/A   Clear
11:55 AM 75.2 °F - 57.2 °F 53% 30.23 in 10.0 mi Calm Calm - N/A   Clear
12:15 PM 78.8 °F - 60.8 °F 54% 30.23 in 10.0 mi East 4.6 mph - N/A   Clear
12:35 PM 78.8 °F - 59.0 °F 51% 30.22 in 10.0 mi East 3.5 mph - N/A   Clear
12:55 PM 78.8 °F - 57.2 °F 47% 30.21 in 10.0 mi Calm Calm - N/A   Clear
1:15 PM 78.8 °F - 59.0 °F 51% 30.20 in 10.0 mi Calm Calm - N/A   Clear
1:35 PM 80.6 °F 80.8 °F 57.2 °F 45% 30.18 in 10.0 mi SSE 6.9 mph - N/A   Partly Cloudy
1:55 PM 80.6 °F 80.8 °F 57.2 °F 45% 30.17 in 10.0 mi Calm Calm - N/A   Partly Cloudy
2:15 PM 80.6 °F 80.8 °F 57.2 °F 45% 30.16 in 10.0 mi SSW 6.9 mph - N/A   Partly Cloudy
2:35 PM 80.6 °F 80.8 °F 57.2 °F 45% 30.15 in 10.0 mi South 5.8 mph - N/A   Scattered Clouds
3:15 PM 78.8 °F - 57.2 °F 47% 30.15 in 10.0 mi Calm Calm - N/A   Partly Cloudy
3:35 PM 78.8 °F - 57.2 °F 47% 30.15 in 10.0 mi SW 4.6 mph - N/A   Clear
3:55 PM 80.6 °F 80.5 °F 55.4 °F 42% 30.14 in 10.0 mi ESE 6.9 mph - N/A   Clear
4:15 PM 80.6 °F 80.5 °F 55.4 °F 42% 30.13 in 10.0 mi SE 9.2 mph - N/A   Clear
4:35 PM 80.6 °F 80.3 °F 53.6 °F 39% 30.14 in 10.0 mi Calm Calm - N/A   Clear
4:55 PM 80.6 °F 80.3 °F 53.6 °F 39% 30.13 in 10.0 mi South 3.5 mph - N/A   Clear
5:15 PM 80.6 °F 80.3 °F 53.6 °F 39% 30.13 in 10.0 mi South 3.5 mph - N/A   Clear
5:35 PM 80.6 °F 80.3 °F 53.6 °F 39% 30.13 in 10.0 mi South 4.6 mph - N/A   Clear
5:55 PM 77.0 °F - 53.6 °F 44% 30.13 in 10.0 mi Calm Calm - N/A   Clear
6:15 PM 73.4 °F - 57.2 °F 57% 30.13 in 10.0 mi Calm Calm - N/A   Clear
6:35 PM 71.6 °F - 57.2 °F 60% 30.13 in 10.0 mi Calm Calm - N/A   Clear
6:55 PM 71.6 °F - 57.2 °F 60% 30.14 in 10.0 mi Calm Calm - N/A   Clear
7:15 PM 69.8 °F - 57.2 °F 64% 30.14 in 10.0 mi Calm Calm - N/A   Clear
7:35 PM 66.2 °F - 60.8 °F 83% 30.14 in 10.0 mi Calm Calm - N/A   Clear
7:55 PM 68.0 °F - 55.4 °F 64% 30.15 in 10.0 mi Calm Calm - N/A   Clear
8:15 PM 66.2 °F - 57.2 °F 73% 30.15 in 10.0 mi Calm Calm - N/A   Clear
8:35 PM 64.4 °F - 59.0 °F 83% 30.15 in 10.0 mi Calm Calm - N/A   Clear
9:15 PM 64.4 °F - 57.2 °F 77% 30.17 in 10.0 mi Calm Calm - N/A   Clear
9:35 PM 62.6 °F - 57.2 °F 82% 30.18 in 10.0 mi Calm Calm - N/A   Clear
9:55 PM 64.4 °F - 57.2 °F 77% 30.18 in 10.0 mi Calm Calm - N/A   Clear
10:15 PM 64.4 °F - 57.2 °F 77% 30.18 in 10.0 mi Calm Calm - N/A   Clear
10:35 PM 64.4 °F - 57.2 °F 77% 30.18 in 10.0 mi Calm Calm - N/A   Clear
10:55 PM 64.4 °F - 57.2 °F 77% 30.18 in 10.0 mi Calm Calm - N/A   Clear
11:15 PM 64.4 °F - 57.2 °F 77% 30.19 in 10.0 mi Calm Calm - N/A   Clear
11:35 PM 64.4 °F - 57.2 °F 77% 30.19 in 10.0 mi Calm Calm - N/A   Clear
11:55 PM 64.4 °F - 57.2 °F 77% 30.19 in 10.0 mi Calm Calm - N/A   Clear